ENT151 EPWA-GCFV

Flight info

Callsign ENT151
Flight time N/A
Altitude 32000
Route SOXER7G SOXER N869 TOMTI DCT ASTEL DCT KONAR DCT OKG N869 AMOSA DCT DKB DCT TEDGO/N0447F330 N869 NATOR DCT LUTIX N869 BENOT DCT NEMOS DCT NINTU DCT MEBAK DCT REPSI DCT LERGA DCT MINSO DCT NARAK DCT AGN DCT MAQAB DCT TIVLI N869 ZAR Z245 CJN N10 SVL N857 CLANA/N0448F350 N857 KORNO UN857 TERTO TERTO8S
Aircraft B738/M-SDE2E3FGHIRWXY/LB1

Departure

Time 2026-05-06 18:03
Airport Warsaw Chopin Airport (EPWA)

Arrival

Time N/A
Airport Fuerteventura Airport (GCFV)
Time Latitude Longitude Altitude Speed Heading
2026-05-06 17:25 52.17737 20.96739 361 ft 0 kts 236°
2026-05-06 17:48 52.17740 20.96745 367 ft 2 kts 236°
2026-05-06 17:48 52.17749 20.96767 362 ft 2 kts 236°
2026-05-06 17:48 52.17758 20.96789 364 ft 2 kts 230°
2026-05-06 17:49 52.17770 20.96806 361 ft 2 kts 187°
2026-05-06 17:49 52.17781 20.96804 364 ft 1 kts 142°
2026-05-06 17:49 52.17782 20.96804 364 ft 0 kts 141°
2026-05-06 17:52 52.17774 20.96809 367 ft 4 kts 155°
2026-05-06 17:53 52.17733 20.96842 361 ft 7 kts 150°
2026-05-06 17:53 52.17691 20.96883 364 ft 7 kts 153°
2026-05-06 17:53 52.17645 20.96897 363 ft 7 kts 191°
2026-05-06 17:53 52.17610 20.96850 367 ft 7 kts 234°
2026-05-06 17:54 52.17584 20.96788 369 ft 7 kts 236°
2026-05-06 17:54 52.17577 20.96769 361 ft 0 kts 239°
2026-05-06 17:55 52.17565 20.96736 361 ft 5 kts 239°
2026-05-06 17:55 52.17547 20.96686 361 ft 7 kts 239°
2026-05-06 17:55 52.17519 20.96611 364 ft 8 kts 234°
2026-05-06 17:56 52.17484 20.96546 364 ft 8 kts 232°
2026-05-06 17:56 52.17460 20.96472 367 ft 7 kts 239°
2026-05-06 17:56 52.17430 20.96407 361 ft 7 kts 217°
2026-05-06 17:56 52.17384 20.96404 364 ft 7 kts 157°
2026-05-06 17:57 52.17342 20.96442 364 ft 8 kts 152°
2026-05-06 17:57 52.17271 20.96502 364 ft 15 kts 152°
2026-05-06 17:57 52.17179 20.96582 365 ft 15 kts 152°
2026-05-06 17:57 52.17088 20.96662 361 ft 15 kts 152°
2026-05-06 17:58 52.16998 20.96741 361 ft 14 kts 152°
2026-05-06 17:58 52.16912 20.96816 363 ft 14 kts 152°
2026-05-06 17:58 52.16830 20.96888 360 ft 13 kts 150°
2026-05-06 17:58 52.16751 20.96958 364 ft 13 kts 152°
2026-05-06 17:59 52.16677 20.97033 360 ft 12 kts 128°
2026-05-06 17:59 52.16637 20.97155 360 ft 12 kts 114°
2026-05-06 17:59 52.16602 20.97278 358 ft 12 kts 114°
2026-05-06 17:59 52.16569 20.97398 360 ft 11 kts 116°
2026-05-06 18:00 52.16561 20.97421 358 ft 1 kts 129°
2026-05-06 18:00 52.16537 20.97501 361 ft 12 kts 114°
2026-05-06 18:00 52.16502 20.97631 363 ft 13 kts 114°
2026-05-06 18:00 52.16466 20.97762 359 ft 13 kts 115°
2026-05-06 18:01 52.16397 20.97798 362 ft 12 kts 207°
2026-05-06 18:01 52.16323 20.97733 360 ft 12 kts 215°
2026-05-06 18:01 52.16322 20.97609 359 ft 12 kts 290°
2026-05-06 18:01 52.16368 20.97447 361 ft 35 kts 295°
2026-05-06 18:02 52.16566 20.96742 364 ft 100 kts 295°
2026-05-06 18:02 52.16939 20.95416 369 ft 155 kts 293°
2026-05-06 18:02 52.17392 20.93641 641 ft 181 kts 294°
2026-05-06 18:02 52.17933 20.91609 948 ft 207 kts 294°
2026-05-06 18:03 52.18276 20.89404 1765 ft 192 kts 263°
2026-05-06 18:03 52.18125 20.87303 2556 ft 193 kts 263°
2026-05-06 18:03 52.18010 20.85001 2707 ft 214 kts 264°
2026-05-06 18:03 52.18007 20.82485 2916 ft 233 kts 277°
2026-05-06 18:04 52.18366 20.79794 3214 ft 250 kts 281°
2026-05-06 18:04 52.18624 20.76998 3818 ft 251 kts 261°
2026-05-06 18:04 52.18218 20.74239 4488 ft 251 kts 252°
2026-05-06 18:04 52.17732 20.71513 5201 ft 251 kts 252°
2026-05-06 18:05 52.17246 20.68767 5849 ft 254 kts 252°
2026-05-06 18:05 52.16763 20.66004 6524 ft 254 kts 252°
2026-05-06 18:05 52.16286 20.63233 7147 ft 256 kts 252°
2026-05-06 18:05 52.15807 20.60424 7767 ft 258 kts 252°
2026-05-06 18:06 52.15327 20.57592 8411 ft 260 kts 252°
2026-05-06 18:06 52.14847 20.54753 9054 ft 261 kts 252°
2026-05-06 18:06 52.14361 20.51877 9667 ft 264 kts 252°
2026-05-06 18:06 52.13868 20.48957 10095 ft 274 kts 252°
2026-05-06 18:07 52.13351 20.45906 10226 ft 293 kts 252°
2026-05-06 18:07 52.12793 20.42612 10372 ft 311 kts 253°
2026-05-06 18:07 52.12200 20.39111 10509 ft 329 kts 252°
2026-05-06 18:07 52.11578 20.35438 10701 ft 344 kts 253°
2026-05-06 18:08 52.10937 20.31652 11157 ft 349 kts 253°
2026-05-06 18:08 52.10290 20.27831 11760 ft 350 kts 253°
2026-05-06 18:08 52.09638 20.23994 12340 ft 353 kts 252°
2026-05-06 18:08 52.08980 20.20138 12895 ft 356 kts 252°
2026-05-06 18:09 52.08315 20.16242 13441 ft 358 kts 252°
2026-05-06 18:09 52.07645 20.12331 13969 ft 360 kts 252°
2026-05-06 18:09 52.06969 20.08394 14487 ft 362 kts 252°
2026-05-06 18:09 52.06292 20.04451 15005 ft 364 kts 252°
2026-05-06 18:10 52.05609 20.00486 15537 ft 365 kts 252°
2026-05-06 18:10 52.04920 19.96504 16042 ft 366 kts 252°
2026-05-06 18:10 52.04211 19.92518 16524 ft 368 kts 250°
2026-05-06 18:10 52.03400 19.88569 16996 ft 370 kts 249°
2026-05-06 18:11 52.02535 19.84617 17474 ft 372 kts 248°
2026-05-06 18:11 52.01953 19.81993 17787 ft 373 kts 248°
2026-05-06 18:11 52.00773 19.76647 18332 ft 377 kts 248°
2026-05-06 18:11 51.99905 19.72681 18729 ft 379 kts 248°
2026-05-06 18:12 51.99024 19.68637 19136 ft 381 kts 248°
2026-05-06 18:12 51.98140 19.64569 19531 ft 383 kts 249°
2026-05-06 18:12 51.97250 19.60485 19908 ft 385 kts 249°
2026-05-06 18:12 51.96353 19.56381 20292 ft 387 kts 248°
2026-05-06 18:13 51.95445 19.52254 20665 ft 389 kts 248°
2026-05-06 18:13 51.94529 19.48108 21037 ft 391 kts 248°
2026-05-06 18:13 51.93608 19.43949 21396 ft 393 kts 248°
2026-05-06 18:13 51.92680 19.39764 21753 ft 395 kts 248°
2026-05-06 18:14 51.91749 19.35571 22114 ft 397 kts 248°
2026-05-06 18:14 51.90812 19.31355 22476 ft 399 kts 248°
2026-05-06 18:14 51.89883 19.27183 22814 ft 400 kts 248°
2026-05-06 18:14 51.88922 19.22875 23145 ft 402 kts 248°
2026-05-06 18:15 51.87984 19.18677 23455 ft 404 kts 248°
2026-05-06 18:15 51.87023 19.14389 23729 ft 406 kts 248°
2026-05-06 18:15 51.86057 19.10056 24015 ft 407 kts 248°
2026-05-06 18:15 51.85124 19.05786 24284 ft 409 kts 249°
2026-05-06 18:16 51.84182 19.01439 24557 ft 410 kts 249°
2026-05-06 18:16 51.83237 18.97082 24839 ft 411 kts 248°
2026-05-06 18:16 51.82285 18.92714 25082 ft 413 kts 248°
2026-05-06 18:16 51.81323 18.88329 25325 ft 414 kts 248°
2026-05-06 18:17 51.80355 18.83929 25580 ft 416 kts 248°
2026-05-06 18:17 51.79380 18.79515 25821 ft 417 kts 248°
2026-05-06 18:17 51.78403 18.75102 26059 ft 418 kts 248°
2026-05-06 18:17 51.77754 18.72174 26211 ft 419 kts 248°
2026-05-06 18:18 51.76766 18.67724 26447 ft 421 kts 248°
2026-05-06 18:18 51.75776 18.63270 26669 ft 422 kts 248°
2026-05-06 18:18 51.74782 18.58812 26889 ft 423 kts 248°
2026-05-06 18:18 51.73786 18.54346 27189 ft 423 kts 248°
2026-05-06 18:19 51.72790 18.49892 27557 ft 420 kts 248°
2026-05-06 18:19 51.71800 18.45472 27921 ft 419 kts 247°
2026-05-06 18:19 51.70807 18.41046 28212 ft 418 kts 247°
2026-05-06 18:19 51.69814 18.36639 28493 ft 418 kts 247°
2026-05-06 18:20 51.68823 18.32245 28807 ft 417 kts 247°
2026-05-06 18:20 51.67845 18.27917 29138 ft 416 kts 247°
2026-05-06 18:20 51.66856 18.23552 29446 ft 415 kts 247°
2026-05-06 18:20 51.65867 18.19192 29718 ft 414 kts 247°
2026-05-06 18:21 51.64876 18.14834 29981 ft 414 kts 247°
2026-05-06 18:21 51.63887 18.10494 30260 ft 412 kts 247°
2026-05-06 18:21 51.62900 18.06171 30523 ft 410 kts 247°
2026-05-06 18:21 51.61915 18.01864 30752 ft 410 kts 247°
2026-05-06 18:22 51.60931 17.97567 30978 ft 409 kts 247°
2026-05-06 18:22 51.59946 17.93279 31220 ft 408 kts 247°
2026-05-06 18:22 51.58962 17.89004 31459 ft 407 kts 247°
2026-05-06 18:22 51.57972 17.84734 31678 ft 406 kts 247°
2026-05-06 18:23 51.56982 17.80491 31901 ft 405 kts 247°
2026-05-06 18:23 51.55991 17.76264 32138 ft 403 kts 247°
2026-05-06 18:23 51.55013 17.72097 32348 ft 403 kts 247°
2026-05-06 18:23 51.54026 17.67897 32551 ft 402 kts 247°
2026-05-06 18:24 51.53037 17.63693 32754 ft 401 kts 247°
2026-05-06 18:24 51.52052 17.59512 32964 ft 400 kts 247°
2026-05-06 18:24 51.51066 17.55332 33166 ft 399 kts 247°
2026-05-06 18:24 51.50083 17.51175 33360 ft 398 kts 247°
2026-05-06 18:25 51.49102 17.47029 33557 ft 397 kts 248°
2026-05-06 18:25 51.48117 17.42878 33736 ft 397 kts 247°
2026-05-06 18:25 51.47135 17.38751 33893 ft 396 kts 247°
2026-05-06 18:25 51.46155 17.34624 33998 ft 396 kts 248°
2026-05-06 18:26 51.44208 17.26405 34211 ft 397 kts 248°
2026-05-06 18:26 51.43228 17.22271 34347 ft 397 kts 247°
2026-05-06 18:26 51.42248 17.18145 34452 ft 397 kts 247°
2026-05-06 18:27 51.40276 17.09873 34648 ft 397 kts 247°
2026-05-06 18:27 51.39287 17.05736 34750 ft 397 kts 247°
2026-05-06 18:27 51.38298 17.01606 34826 ft 398 kts 247°
2026-05-06 18:28 51.36305 16.93310 34957 ft 400 kts 247°
2026-05-06 18:28 51.35305 16.89159 35073 ft 399 kts 247°
2026-05-06 18:28 51.34305 16.85019 35175 ft 399 kts 247°
2026-05-06 18:29 51.32300 16.76732 35343 ft 400 kts 247°
2026-05-06 18:29 51.30283 16.68433 35459 ft 401 kts 247°
2026-05-06 18:30 51.28250 16.60099 35534 ft 404 kts 247°
2026-05-06 18:30 51.26205 16.51746 35715 ft 403 kts 247°
2026-05-06 18:31 51.24154 16.43402 35777 ft 404 kts 246°
2026-05-06 18:31 51.22092 16.35044 35786 ft 406 kts 246°
2026-05-06 18:32 51.20029 16.26712 35788 ft 408 kts 246°
2026-05-06 18:32 51.17934 16.18286 35794 ft 409 kts 246°
2026-05-06 18:33 51.15825 16.09832 35786 ft 411 kts 246°
2026-05-06 18:33 51.13706 16.01371 35777 ft 412 kts 246°
2026-05-06 18:34 51.11578 15.92903 35782 ft 412 kts 246°
2026-05-06 18:34 51.09442 15.84439 35787 ft 412 kts 246°
2026-05-06 18:35 51.07302 15.75989 35788 ft 412 kts 246°
2026-05-06 18:35 51.05158 15.67555 35786 ft 411 kts 246°
2026-05-06 18:36 51.03008 15.59123 35780 ft 411 kts 246°
2026-05-06 18:36 51.00851 15.50717 35781 ft 411 kts 245°
2026-05-06 18:37 50.98684 15.42339 35785 ft 410 kts 245°
2026-05-06 18:37 50.96526 15.34017 35774 ft 410 kts 245°
2026-05-06 18:38 50.94492 15.25575 35784 ft 410 kts 249°
2026-05-06 18:38 50.92748 15.16948 35781 ft 411 kts 250°
2026-05-06 18:39 50.91004 15.08320 35770 ft 411 kts 249°
2026-05-06 18:40 50.87798 14.95777 35785 ft 409 kts 242°
2026-05-06 18:40 50.85294 14.87692 35788 ft 409 kts 242°
2026-05-06 18:41 50.82808 14.79631 35775 ft 410 kts 242°
2026-05-06 18:41 50.80312 14.71476 35765 ft 412 kts 242°
2026-05-06 18:42 50.77817 14.63316 35770 ft 412 kts 242°
2026-05-06 18:42 50.75315 14.55154 35781 ft 413 kts 242°
2026-05-06 18:43 50.72817 14.47028 35764 ft 414 kts 242°
2026-05-06 18:43 50.70292 14.38845 35770 ft 415 kts 242°
2026-05-06 18:44 50.67755 14.30652 35765 ft 415 kts 242°
2026-05-06 18:44 50.65208 14.22453 35763 ft 416 kts 242°
2026-05-06 18:45 50.62674 14.14322 35759 ft 416 kts 242°
2026-05-06 18:45 50.60113 14.06132 35763 ft 417 kts 242°
2026-05-06 18:46 50.57544 13.97945 35752 ft 417 kts 242°
2026-05-06 18:46 50.54972 13.89774 35763 ft 417 kts 242°
2026-05-06 18:47 50.52395 13.81617 35759 ft 417 kts 242°
2026-05-06 18:47 50.49808 13.73452 35762 ft 417 kts 242°
2026-05-06 18:48 50.47221 13.65315 35755 ft 417 kts 242°
2026-05-06 18:48 50.44624 13.57187 35761 ft 417 kts 241°
2026-05-06 18:49 50.42011 13.49081 35767 ft 416 kts 241°
2026-05-06 18:49 50.39393 13.40982 35760 ft 416 kts 241°
2026-05-06 18:50 50.36773 13.32897 35766 ft 416 kts 241°
2026-05-06 18:50 50.34150 13.24823 35768 ft 415 kts 241°
2026-05-06 18:51 50.31526 13.16773 35773 ft 415 kts 241°
2026-05-06 18:51 50.28895 13.08727 35776 ft 415 kts 241°
2026-05-06 18:52 50.26259 13.00689 35780 ft 415 kts 240°
2026-05-06 18:52 50.23635 12.92717 35777 ft 415 kts 240°
2026-05-06 18:53 50.20988 12.84698 35771 ft 415 kts 240°
2026-05-06 18:53 50.18328 12.76666 35780 ft 416 kts 240°
2026-05-06 18:54 50.15667 12.68657 35774 ft 415 kts 240°
2026-05-06 18:54 50.13018 12.60708 35781 ft 415 kts 240°
2026-05-06 18:55 50.10346 12.52718 35783 ft 415 kts 240°
2026-05-06 18:55 50.07671 12.44741 35787 ft 415 kts 240°
2026-05-06 18:56 50.04990 12.36773 35788 ft 416 kts 240°
2026-05-06 18:56 50.02299 12.28802 35794 ft 416 kts 240°
2026-05-06 18:57 49.99600 12.20831 35795 ft 416 kts 239°
2026-05-06 18:57 49.96894 12.12864 35789 ft 417 kts 239°
2026-05-06 18:58 49.94181 12.04902 35785 ft 417 kts 239°
2026-05-06 18:58 49.91479 11.96996 35789 ft 418 kts 239°
2026-05-06 18:59 49.88753 11.89043 35795 ft 418 kts 239°
2026-05-06 18:59 49.86014 11.81081 35789 ft 419 kts 239°
2026-05-06 19:00 49.83267 11.73117 35783 ft 419 kts 239°
2026-05-06 19:00 49.80511 11.65153 35792 ft 419 kts 239°
2026-05-06 19:01 49.77749 11.57197 35807 ft 420 kts 239°
2026-05-06 19:01 49.74980 11.49246 35805 ft 420 kts 239°
2026-05-06 19:02 49.72217 11.41336 35800 ft 421 kts 239°
2026-05-06 19:02 49.69428 11.33377 35805 ft 421 kts 239°
2026-05-06 19:03 49.66630 11.25415 35800 ft 422 kts 239°
2026-05-06 19:03 49.63821 11.17446 35804 ft 423 kts 239°
2026-05-06 19:04 49.61004 11.09481 35805 ft 423 kts 239°
2026-05-06 19:04 49.58175 11.01504 35803 ft 424 kts 239°
2026-05-06 19:05 49.55818 10.94878 35803 ft 424 kts 239°
2026-05-06 19:05 49.52978 10.86911 35802 ft 425 kts 239°
2026-05-06 19:06 49.49809 10.79277 35797 ft 422 kts 227°
2026-05-06 19:06 49.45727 10.72810 35813 ft 421 kts 224°
2026-05-06 19:07 49.41600 10.66401 35833 ft 422 kts 224°
2026-05-06 19:07 49.37480 10.59956 35852 ft 423 kts 224°
2026-05-06 19:08 49.33363 10.53501 35864 ft 423 kts 224°
2026-05-06 19:08 49.29239 10.47046 35868 ft 424 kts 224°
2026-05-06 19:09 49.25108 10.40597 35860 ft 424 kts 224°
2026-05-06 19:09 49.20997 10.34197 35855 ft 424 kts 224°
2026-05-06 19:10 49.16853 10.27759 35825 ft 425 kts 224°
2026-05-06 19:10 49.12829 10.21160 35857 ft 424 kts 229°
2026-05-06 19:11 49.09136 10.14141 35854 ft 424 kts 230°
2026-05-06 19:11 49.05459 10.07113 35831 ft 424 kts 229°
2026-05-06 19:12 49.01763 10.00112 35841 ft 424 kts 229°
2026-05-06 19:12 48.98048 9.93121 35835 ft 424 kts 229°
2026-05-06 19:13 48.94324 9.86139 35842 ft 425 kts 229°
2026-05-06 19:13 48.90579 9.79135 35842 ft 426 kts 229°
2026-05-06 19:14 48.86853 9.72184 35845 ft 428 kts 229°
2026-05-06 19:14 48.83083 9.65169 35849 ft 429 kts 229°
2026-05-06 19:15 48.79299 9.58147 35858 ft 430 kts 229°
2026-05-06 19:15 48.75505 9.51124 35859 ft 431 kts 229°
2026-05-06 19:16 48.71694 9.44087 35860 ft 432 kts 229°
2026-05-06 19:16 48.67869 9.37043 35859 ft 433 kts 229°
2026-05-06 19:17 48.64033 9.29995 35862 ft 433 kts 229°
2026-05-06 19:17 48.60305 9.22913 35856 ft 434 kts 232°
2026-05-06 19:18 48.56801 9.15466 35862 ft 435 kts 233°
2026-05-06 19:18 48.53323 9.07974 35865 ft 435 kts 233°
2026-05-06 19:19 48.49816 9.00509 35868 ft 436 kts 233°
2026-05-06 19:19 48.46295 8.93078 35861 ft 435 kts 232°
2026-05-06 19:20 48.42771 8.85673 35884 ft 435 kts 232°
2026-05-06 19:20 48.39257 8.78308 35891 ft 435 kts 232°
2026-05-06 19:21 48.35722 8.70919 35890 ft 435 kts 233°
2026-05-06 19:21 48.32180 8.63534 35889 ft 435 kts 233°
2026-05-06 19:22 48.28637 8.56166 35889 ft 435 kts 233°
2026-05-06 19:22 48.25088 8.48805 35901 ft 435 kts 232°
2026-05-06 19:23 48.21530 8.41442 35895 ft 435 kts 232°
2026-05-06 19:23 48.17892 8.34191 35892 ft 435 kts 226°
2026-05-06 19:24 48.13303 8.28366 35909 ft 433 kts 213°
2026-05-06 19:24 48.08244 8.23561 35908 ft 434 kts 212°
2026-05-06 19:25 48.03141 8.18726 35914 ft 434 kts 212°
2026-05-06 19:25 47.98016 8.13831 35914 ft 435 kts 213°
2026-05-06 19:26 47.92953 8.08986 35920 ft 435 kts 213°
2026-05-06 19:26 47.87849 8.04106 35921 ft 436 kts 213°
2026-05-06 19:27 47.82740 7.99234 35927 ft 435 kts 213°
2026-05-06 19:27 47.77631 7.94374 35924 ft 436 kts 213°
2026-05-06 19:28 47.72518 7.89523 35928 ft 436 kts 213°
2026-05-06 19:28 47.67405 7.84682 35920 ft 436 kts 213°
2026-05-06 19:29 47.62286 7.79848 35917 ft 436 kts 213°
2026-05-06 19:29 47.57200 7.75057 35916 ft 436 kts 213°
2026-05-06 19:30 47.52082 7.70246 35916 ft 436 kts 213°
2026-05-06 19:30 47.46957 7.65439 35917 ft 435 kts 213°
2026-05-06 19:31 47.41841 7.60652 35914 ft 435 kts 213°
2026-05-06 19:31 47.34152 7.53479 35936 ft 435 kts 213°
2026-05-06 19:32 47.29034 7.48718 35945 ft 435 kts 213°
2026-05-06 19:32 47.23953 7.43999 35941 ft 435 kts 213°
2026-05-06 19:33 47.18836 7.39246 35940 ft 435 kts 215°
2026-05-06 19:33 47.14349 7.33333 35937 ft 434 kts 231°
2026-05-06 19:34 47.10652 7.26326 35938 ft 434 kts 231°
2026-05-06 19:34 47.06922 7.19361 35938 ft 434 kts 231°
2026-05-06 19:35 47.03149 7.12441 35928 ft 434 kts 230°
2026-05-06 19:35 46.99384 7.05585 35938 ft 434 kts 230°
2026-05-06 19:36 46.95589 6.98676 35938 ft 435 kts 231°
2026-05-06 19:36 46.91790 6.91774 35940 ft 435 kts 230°
2026-05-06 19:37 46.87983 6.84879 35942 ft 436 kts 230°
2026-05-06 19:37 46.84812 6.79150 35941 ft 436 kts 230°
2026-05-06 19:38 46.80366 6.71132 35940 ft 437 kts 230°
2026-05-06 19:38 46.76531 6.64232 35941 ft 438 kts 230°
2026-05-06 19:39 46.72682 6.57325 35935 ft 439 kts 230°
2026-05-06 19:39 46.68827 6.50425 35934 ft 439 kts 230°
2026-05-06 19:40 46.64966 6.43531 35938 ft 439 kts 230°
2026-05-06 19:40 46.61099 6.36643 35941 ft 439 kts 230°
2026-05-06 19:41 46.57224 6.29758 35945 ft 439 kts 230°
2026-05-06 19:41 46.53345 6.22884 35942 ft 440 kts 230°
2026-05-06 19:42 46.49465 6.16025 35943 ft 440 kts 230°
2026-05-06 19:42 46.45607 6.09220 35947 ft 440 kts 230°
2026-05-06 19:43 46.41718 6.02379 35941 ft 440 kts 230°
2026-05-06 19:43 46.37822 5.95542 35946 ft 439 kts 230°
2026-05-06 19:44 46.33929 5.88727 35942 ft 439 kts 230°
2026-05-06 19:44 46.30027 5.81913 35947 ft 439 kts 230°
2026-05-06 19:45 46.26125 5.75116 35948 ft 439 kts 230°
2026-05-06 19:45 46.22217 5.68322 35949 ft 439 kts 230°
2026-05-06 19:46 46.18314 5.61553 35951 ft 439 kts 230°
2026-05-06 19:46 46.14437 5.54796 35945 ft 439 kts 233°
2026-05-06 19:47 46.10911 5.47629 35955 ft 438 kts 236°
2026-05-06 19:47 46.07487 5.40360 35947 ft 438 kts 236°
2026-05-06 19:48 46.04040 5.33111 35947 ft 438 kts 236°
2026-05-06 19:48 46.00570 5.25896 35951 ft 438 kts 235°
2026-05-06 19:49 45.97093 5.18706 35952 ft 438 kts 235°
2026-05-06 19:49 45.93632 5.11568 35957 ft 438 kts 235°
2026-05-06 19:50 45.90141 5.04385 35961 ft 438 kts 235°
2026-05-06 19:50 45.86649 4.97218 35963 ft 438 kts 235°
2026-05-06 19:51 45.83156 4.90064 35966 ft 438 kts 235°
2026-05-06 19:51 45.79659 4.82921 35969 ft 438 kts 235°
2026-05-06 19:52 45.76169 4.75811 35962 ft 438 kts 235°
2026-05-06 19:52 45.73235 4.69843 35956 ft 437 kts 235°
2026-05-06 19:53 45.69724 4.62721 35960 ft 437 kts 235°
2026-05-06 19:53 45.66241 4.55652 35981 ft 439 kts 235°
2026-05-06 19:54 45.62715 4.48507 36029 ft 440 kts 235°
2026-05-06 19:54 45.59087 4.41464 36158 ft 440 kts 230°
2026-05-06 19:55 45.54977 4.34981 36256 ft 440 kts 228°
2026-05-06 19:55 45.50801 4.28586 36363 ft 440 kts 228°
2026-05-06 19:56 45.46640 4.22162 36433 ft 441 kts 228°
2026-05-06 19:56 45.42498 4.15721 36531 ft 440 kts 229°
2026-05-06 19:57 45.38362 4.09280 36598 ft 440 kts 229°
2026-05-06 19:57 45.34229 4.02856 36699 ft 440 kts 229°
2026-05-06 19:58 45.30092 3.96441 36755 ft 440 kts 229°
2026-05-06 19:58 45.25974 3.90073 36926 ft 436 kts 229°
2026-05-06 19:59 45.21870 3.83740 36932 ft 436 kts 229°
2026-05-06 19:59 45.17794 3.77467 36950 ft 435 kts 228°
2026-05-06 20:00 45.13686 3.71157 36929 ft 435 kts 228°
2026-05-06 20:00 45.09581 3.64866 36941 ft 435 kts 228°
2026-05-06 20:01 45.05473 3.58586 36948 ft 435 kts 228°
2026-05-06 20:01 45.01354 3.52302 36942 ft 435 kts 228°
2026-05-06 20:02 44.97230 3.46027 36959 ft 435 kts 228°
2026-05-06 20:02 44.93113 3.39775 36968 ft 435 kts 228°
2026-05-06 20:03 44.88989 3.33527 36973 ft 435 kts 228°
2026-05-06 20:03 44.84889 3.27329 36970 ft 435 kts 228°
2026-05-06 20:04 44.80763 3.21105 36975 ft 435 kts 228°
2026-05-06 20:04 44.76633 3.14891 36979 ft 434 kts 228°
2026-05-06 20:05 44.72500 3.08685 36981 ft 434 kts 228°
2026-05-06 20:05 44.68357 3.02478 36979 ft 435 kts 228°
2026-05-06 20:06 44.64219 2.96293 36980 ft 434 kts 228°
2026-05-06 20:06 44.60078 2.90116 36982 ft 435 kts 228°
2026-05-06 20:07 44.55919 2.83927 36982 ft 435 kts 228°
2026-05-06 20:07 44.51772 2.77770 36987 ft 435 kts 228°
2026-05-06 20:08 44.47641 2.71649 36990 ft 435 kts 228°
2026-05-06 20:08 44.43456 2.65464 36990 ft 435 kts 228°
2026-05-06 20:09 44.39320 2.59362 36995 ft 435 kts 228°
2026-05-06 20:09 44.35154 2.53231 36992 ft 435 kts 228°
2026-05-06 20:10 44.30984 2.47107 36992 ft 435 kts 228°
2026-05-06 20:10 44.26782 2.40952 36994 ft 435 kts 228°
2026-05-06 20:11 44.22634 2.34886 36990 ft 435 kts 228°
2026-05-06 20:11 44.18446 2.28778 36989 ft 435 kts 228°
2026-05-06 20:12 44.14260 2.22684 36987 ft 436 kts 228°
2026-05-06 20:12 44.10063 2.16588 36984 ft 436 kts 228°
2026-05-06 20:13 44.05858 2.10494 36989 ft 436 kts 228°
2026-05-06 20:13 44.01652 2.04412 36982 ft 436 kts 228°
2026-05-06 20:14 43.97477 1.98387 36990 ft 435 kts 228°
2026-05-06 20:14 43.93269 1.92329 36992 ft 435 kts 228°
2026-05-06 20:15 43.89062 1.86285 36987 ft 435 kts 228°
2026-05-06 20:15 43.84857 1.80258 36983 ft 435 kts 228°
2026-05-06 20:16 43.80649 1.74237 36993 ft 434 kts 228°
2026-05-06 20:16 43.76446 1.68239 37004 ft 434 kts 228°
2026-05-06 20:17 43.72260 1.62276 37010 ft 434 kts 228°
2026-05-06 20:17 43.68050 1.56293 37020 ft 434 kts 228°
2026-05-06 20:18 43.63836 1.50317 37013 ft 434 kts 228°
2026-05-06 20:18 43.59622 1.44353 37026 ft 434 kts 228°
2026-05-06 20:19 43.55405 1.38398 37013 ft 434 kts 228°
2026-05-06 20:19 43.51184 1.32449 37020 ft 433 kts 227°
2026-05-06 20:20 43.46963 1.26514 37014 ft 433 kts 227°
2026-05-06 20:20 43.42741 1.20589 37010 ft 433 kts 227°
2026-05-06 20:21 43.38517 1.14676 37004 ft 433 kts 227°
2026-05-06 20:21 43.34320 1.08811 37006 ft 433 kts 227°
2026-05-06 20:22 43.30088 1.02910 37011 ft 433 kts 227°
2026-05-06 20:22 43.25864 0.97032 37017 ft 432 kts 227°
2026-05-06 20:23 43.21633 0.91157 37014 ft 432 kts 227°
2026-05-06 20:23 43.17408 0.85303 37017 ft 432 kts 227°
2026-05-06 20:24 43.13178 0.79454 37019 ft 432 kts 227°
2026-05-06 20:24 43.08949 0.73620 37027 ft 432 kts 227°
2026-05-06 20:25 43.04741 0.67826 37028 ft 432 kts 227°
2026-05-06 20:25 43.00503 0.62002 37032 ft 431 kts 227°
2026-05-06 20:26 42.96269 0.56196 37025 ft 431 kts 227°
2026-05-06 20:26 42.92030 0.50395 37035 ft 431 kts 227°
2026-05-06 20:27 42.87787 0.44600 37028 ft 432 kts 227°
2026-05-06 20:27 42.83540 0.38813 37020 ft 432 kts 227°
2026-05-06 20:28 42.79283 0.33024 37022 ft 432 kts 227°
2026-05-06 20:28 42.75056 0.27286 37050 ft 432 kts 227°
2026-05-06 20:29 42.70791 0.21509 37017 ft 433 kts 227°
2026-05-06 20:29 42.66512 0.15726 36994 ft 434 kts 227°
2026-05-06 20:30 42.60089 0.07067 36985 ft 433 kts 227°
2026-05-06 20:31 42.55807 0.01309 36985 ft 432 kts 227°
2026-05-06 20:31 42.51532 -0.04427 36977 ft 432 kts 227°
2026-05-06 20:32 42.47266 -0.10139 36969 ft 432 kts 227°
2026-05-06 20:32 42.43025 -0.15809 36982 ft 431 kts 227°
2026-05-06 20:33 42.38756 -0.21503 36973 ft 431 kts 227°
2026-05-06 20:33 42.34483 -0.27191 36965 ft 431 kts 227°
2026-05-06 20:34 42.30210 -0.32868 36966 ft 431 kts 227°
2026-05-06 20:34 42.25928 -0.38544 36966 ft 431 kts 226°
2026-05-06 20:35 42.21650 -0.44205 36963 ft 431 kts 226°
2026-05-06 20:35 42.17367 -0.49861 36966 ft 431 kts 226°
2026-05-06 20:36 42.13109 -0.55471 36963 ft 430 kts 226°
2026-05-06 20:36 42.08824 -0.61107 36965 ft 430 kts 226°
2026-05-06 20:37 42.05259 -0.65789 36961 ft 430 kts 226°
2026-05-06 20:37 42.00246 -0.72356 36965 ft 430 kts 226°
2026-05-06 20:38 41.96678 -0.77022 36957 ft 430 kts 226°
2026-05-06 20:38 41.92382 -0.82630 36963 ft 430 kts 226°
2026-05-06 20:39 41.88086 -0.88226 36968 ft 430 kts 226°
2026-05-06 20:39 41.83788 -0.93813 36967 ft 430 kts 226°
2026-05-06 20:40 41.79516 -0.99356 36968 ft 430 kts 226°
2026-05-06 20:40 41.75216 -1.04925 36977 ft 430 kts 226°
2026-05-06 20:41 41.70915 -1.10483 36976 ft 430 kts 226°
2026-05-06 20:41 41.66614 -1.16032 36976 ft 429 kts 226°
2026-05-06 20:42 41.62305 -1.21579 36986 ft 429 kts 226°
2026-05-06 20:42 41.57993 -1.27120 36984 ft 429 kts 226°
2026-05-06 20:43 41.53687 -1.32642 36988 ft 430 kts 225°
2026-05-06 20:43 41.49374 -1.38161 36989 ft 430 kts 225°
2026-05-06 20:44 41.45083 -1.43643 36992 ft 430 kts 225°
2026-05-06 20:44 41.40760 -1.49155 36984 ft 430 kts 225°
2026-05-06 20:45 41.36439 -1.54653 36991 ft 430 kts 225°
2026-05-06 20:45 41.32114 -1.60145 36987 ft 430 kts 225°
2026-05-06 20:46 41.27787 -1.65631 36980 ft 430 kts 225°
2026-05-06 20:46 41.23455 -1.71111 36988 ft 429 kts 225°
2026-05-06 20:47 41.19123 -1.76582 36992 ft 429 kts 225°
2026-05-06 20:47 41.14791 -1.82041 36978 ft 429 kts 225°
2026-05-06 20:48 41.10484 -1.87458 36978 ft 429 kts 225°
2026-05-06 20:48 41.06153 -1.92895 36980 ft 428 kts 225°
2026-05-06 20:49 41.01825 -1.98319 36984 ft 428 kts 225°
2026-05-06 20:49 40.97495 -2.03734 36974 ft 428 kts 225°
2026-05-06 20:50 40.93156 -2.09152 36989 ft 428 kts 225°
2026-05-06 20:50 40.88819 -2.14555 36964 ft 428 kts 225°
2026-05-06 20:51 40.84476 -2.19956 36951 ft 429 kts 225°
2026-05-06 20:51 40.80154 -2.25321 36954 ft 429 kts 225°
2026-05-06 20:52 40.75808 -2.30705 36957 ft 429 kts 225°
2026-05-06 20:52 40.71453 -2.36090 36945 ft 429 kts 225°
2026-05-06 20:53 40.67094 -2.41471 36930 ft 429 kts 225°
2026-05-06 20:53 40.62730 -2.46848 36932 ft 430 kts 225°
2026-05-06 20:54 40.58359 -2.52222 36923 ft 430 kts 225°
2026-05-06 20:54 40.53979 -2.57598 36926 ft 430 kts 225°
2026-05-06 20:55 40.49601 -2.62961 36924 ft 431 kts 225°
2026-05-06 20:55 40.45212 -2.68328 36928 ft 431 kts 225°
2026-05-06 20:56 40.40817 -2.73692 36925 ft 431 kts 225°
2026-05-06 20:56 40.36417 -2.79052 36917 ft 431 kts 225°
2026-05-06 20:57 40.32047 -2.84366 36911 ft 432 kts 225°
2026-05-06 20:57 40.27641 -2.89713 36917 ft 432 kts 225°
2026-05-06 20:58 40.23224 -2.95064 36918 ft 432 kts 225°
2026-05-06 20:58 40.18803 -3.00409 36913 ft 432 kts 225°
2026-05-06 20:59 40.14380 -3.05748 36919 ft 433 kts 225°
2026-05-06 20:59 40.09950 -3.11085 36911 ft 433 kts 225°
2026-05-06 21:00 40.05519 -3.16413 36910 ft 433 kts 225°
2026-05-06 21:00 40.01088 -3.21731 36911 ft 433 kts 225°
2026-05-06 21:01 39.96684 -3.27008 36907 ft 433 kts 225°
2026-05-06 21:01 39.92241 -3.32320 36896 ft 433 kts 225°
2026-05-06 21:02 39.87797 -3.37626 36902 ft 433 kts 225°
2026-05-06 21:02 39.83352 -3.42921 36898 ft 433 kts 225°
2026-05-06 21:03 39.78898 -3.48219 36896 ft 434 kts 224°
2026-05-06 21:03 39.74444 -3.53506 36889 ft 434 kts 224°
2026-05-06 21:04 39.69988 -3.58786 36894 ft 434 kts 224°
2026-05-06 21:04 39.65524 -3.64068 36891 ft 434 kts 224°
2026-05-06 21:05 39.61061 -3.69340 36891 ft 434 kts 224°
2026-05-06 21:05 39.56621 -3.74577 36888 ft 434 kts 225°
2026-05-06 21:06 39.52321 -3.80044 36893 ft 433 kts 227°
2026-05-06 21:06 39.48108 -3.85619 36886 ft 433 kts 227°
2026-05-06 21:07 39.43889 -3.91173 36887 ft 433 kts 227°
2026-05-06 21:07 39.39650 -3.96703 36893 ft 433 kts 227°
2026-05-06 21:08 39.35403 -4.02219 36880 ft 433 kts 227°
2026-05-06 21:08 39.31147 -4.07735 36884 ft 433 kts 227°
2026-05-06 21:09 39.26895 -4.13236 36897 ft 433 kts 227°
2026-05-06 21:09 39.22631 -4.18742 36880 ft 433 kts 227°
2026-05-06 21:10 39.18398 -4.24200 36879 ft 433 kts 227°
2026-05-06 21:10 39.14132 -4.29691 36876 ft 433 kts 226°
2026-05-06 21:11 39.09864 -4.35173 36875 ft 433 kts 226°
2026-05-06 21:11 39.05594 -4.40648 36871 ft 433 kts 226°
2026-05-06 21:12 39.01326 -4.46113 36870 ft 433 kts 226°
2026-05-06 21:12 38.97058 -4.51568 36869 ft 432 kts 226°
2026-05-06 21:13 38.92816 -4.56978 36867 ft 432 kts 226°
2026-05-06 21:13 38.88546 -4.62404 36868 ft 432 kts 226°
2026-05-06 21:14 38.84257 -4.67847 36866 ft 432 kts 226°
2026-05-06 21:14 38.79980 -4.73266 36862 ft 432 kts 226°
2026-05-06 21:15 38.75698 -4.78683 36862 ft 432 kts 226°
2026-05-06 21:15 38.71412 -4.84097 36862 ft 432 kts 226°
2026-05-06 21:16 38.67159 -4.89458 36859 ft 432 kts 226°
2026-05-06 21:16 38.62879 -4.94845 36854 ft 431 kts 226°
2026-05-06 21:17 38.58598 -5.00225 36859 ft 431 kts 226°
2026-05-06 21:17 38.54319 -5.05592 36858 ft 430 kts 226°
2026-05-06 21:18 38.49760 -5.10554 36854 ft 432 kts 215°
2026-05-06 21:18 38.44408 -5.14085 36860 ft 434 kts 208°
2026-05-06 21:19 38.38963 -5.17398 36864 ft 433 kts 208°
2026-05-06 21:19 38.33558 -5.20713 36858 ft 433 kts 208°
2026-05-06 21:20 38.28133 -5.24064 36859 ft 433 kts 208°
2026-05-06 21:20 38.22702 -5.27422 36856 ft 433 kts 208°
2026-05-06 21:21 38.17280 -5.30771 36864 ft 433 kts 208°
2026-05-06 21:21 38.11856 -5.34114 36865 ft 433 kts 208°
2026-05-06 21:22 38.06429 -5.37453 36865 ft 433 kts 208°
2026-05-06 21:22 38.01053 -5.40755 36866 ft 432 kts 208°
2026-05-06 21:23 37.95630 -5.44081 36867 ft 432 kts 208°
2026-05-06 21:23 37.90208 -5.47400 36863 ft 432 kts 208°
2026-05-06 21:24 37.84804 -5.50704 36869 ft 431 kts 208°
2026-05-06 21:24 37.79434 -5.53980 36867 ft 431 kts 208°
2026-05-06 21:25 37.74029 -5.57274 36863 ft 430 kts 208°
2026-05-06 21:25 37.68630 -5.60558 36873 ft 430 kts 208°
2026-05-06 21:26 37.64149 -5.63279 36870 ft 430 kts 208°
2026-05-06 21:26 37.57853 -5.67098 36875 ft 429 kts 208°
2026-05-06 21:27 37.52503 -5.70337 36882 ft 429 kts 208°
2026-05-06 21:27 37.47993 -5.73064 36947 ft 426 kts 208°
2026-05-06 21:28 37.42829 -5.76365 36878 ft 410 kts 214°
2026-05-06 21:28 37.38404 -5.80810 36915 ft 408 kts 222°
2026-05-06 21:29 37.34058 -5.85490 36892 ft 412 kts 221°
2026-05-06 21:29 37.29673 -5.90168 36893 ft 414 kts 221°
2026-05-06 21:30 37.25247 -5.94869 36889 ft 417 kts 221°
2026-05-06 21:30 37.20803 -5.99577 36890 ft 419 kts 221°
2026-05-06 21:31 37.16335 -6.04304 36883 ft 421 kts 221°
2026-05-06 21:31 37.11845 -6.09047 36885 ft 422 kts 221°
2026-05-06 21:32 37.07375 -6.13762 36889 ft 423 kts 221°
2026-05-06 21:32 37.00591 -6.20903 36895 ft 424 kts 221°
2026-05-06 21:33 36.96067 -6.25656 36898 ft 425 kts 221°
2026-05-06 21:33 36.91533 -6.30411 36898 ft 425 kts 221°
2026-05-06 21:34 36.86993 -6.35165 36901 ft 426 kts 221°
2026-05-06 21:34 36.82482 -6.39882 36906 ft 426 kts 221°
2026-05-06 21:35 36.77930 -6.44633 36907 ft 426 kts 221°
2026-05-06 21:35 36.73378 -6.49378 36909 ft 426 kts 221°
2026-05-06 21:36 36.68824 -6.54117 36907 ft 426 kts 221°
2026-05-06 21:36 36.64265 -6.58853 36904 ft 427 kts 221°
2026-05-06 21:37 36.59699 -6.63590 36905 ft 427 kts 221°
2026-05-06 21:37 36.55128 -6.68325 36902 ft 427 kts 221°
2026-05-06 21:38 36.50592 -6.73016 36904 ft 427 kts 221°
2026-05-06 21:38 36.46011 -6.77739 36906 ft 427 kts 221°
2026-05-06 21:39 36.41417 -6.82468 36906 ft 428 kts 221°
2026-05-06 21:39 36.36835 -6.87179 36912 ft 428 kts 221°
2026-05-06 21:40 36.32247 -6.91890 36912 ft 428 kts 221°
2026-05-06 21:40 36.27659 -6.96594 36916 ft 428 kts 221°
2026-05-06 21:41 36.23090 -7.01270 36922 ft 428 kts 221°
2026-05-06 21:41 36.18491 -7.05971 36924 ft 428 kts 221°
2026-05-06 21:42 36.13884 -7.10672 36928 ft 428 kts 221°
2026-05-06 21:42 36.09283 -7.15359 36916 ft 429 kts 221°
2026-05-06 21:43 36.04673 -7.20048 36922 ft 429 kts 221°
2026-05-06 21:43 36.00066 -7.24728 36925 ft 429 kts 221°
2026-05-06 21:44 35.95484 -7.29374 36933 ft 429 kts 221°
2026-05-06 21:44 35.90869 -7.34048 36936 ft 429 kts 221°
2026-05-06 21:45 35.86251 -7.38718 36933 ft 429 kts 221°
2026-05-06 21:45 35.81620 -7.43387 36939 ft 429 kts 221°
2026-05-06 21:46 35.76993 -7.48002 36939 ft 430 kts 221°
2026-05-06 21:46 35.72340 -7.52632 36941 ft 430 kts 221°
2026-05-06 21:47 35.67689 -7.57258 36947 ft 430 kts 221°
2026-05-06 21:47 35.63031 -7.61888 36949 ft 430 kts 221°
2026-05-06 21:48 35.58407 -7.66477 36951 ft 430 kts 221°
2026-05-06 21:48 35.53747 -7.71095 36954 ft 430 kts 221°
2026-05-06 21:49 35.49083 -7.75710 36956 ft 430 kts 221°
2026-05-06 21:49 35.44408 -7.80330 36960 ft 431 kts 221°
2026-05-06 21:50 35.39747 -7.84936 36957 ft 431 kts 221°
2026-05-06 21:50 35.35098 -7.89579 36964 ft 431 kts 221°
2026-05-06 21:51 35.30486 -7.94192 36964 ft 431 kts 221°
2026-05-06 21:51 35.25842 -7.98826 36966 ft 431 kts 221°
2026-05-06 21:52 35.21190 -8.03458 36969 ft 431 kts 221°
2026-05-06 21:52 35.16527 -8.08092 36970 ft 432 kts 221°
2026-05-06 21:53 35.11866 -8.12718 36970 ft 432 kts 221°
2026-05-06 21:53 35.07199 -8.17341 36974 ft 432 kts 221°
2026-05-06 21:54 35.02525 -8.21965 36976 ft 432 kts 222°
2026-05-06 21:54 34.97852 -8.26582 36976 ft 432 kts 221°
2026-05-06 21:55 34.93205 -8.31165 36977 ft 432 kts 221°
2026-05-06 21:55 34.88528 -8.35771 36979 ft 432 kts 221°
2026-05-06 21:56 34.83851 -8.40371 36987 ft 432 kts 221°
2026-05-06 21:56 34.79167 -8.44969 36986 ft 432 kts 221°
2026-05-06 21:57 34.74491 -8.49554 36988 ft 432 kts 221°
2026-05-06 21:57 34.69806 -8.54140 36986 ft 432 kts 221°
2026-05-06 21:58 34.65149 -8.58693 36989 ft 432 kts 222°
2026-05-06 21:58 34.60460 -8.63270 36992 ft 432 kts 222°
2026-05-06 21:59 34.55767 -8.67845 36994 ft 433 kts 222°
2026-05-06 21:59 34.51069 -8.72418 37002 ft 433 kts 222°
2026-05-06 22:00 34.46370 -8.76985 36993 ft 433 kts 222°
2026-05-06 22:00 34.41661 -8.81543 36995 ft 432 kts 221°
2026-05-06 22:01 34.36974 -8.86045 37000 ft 432 kts 221°
2026-05-06 22:01 34.32257 -8.90570 36994 ft 432 kts 221°
2026-05-06 22:02 34.27549 -8.95083 36992 ft 432 kts 221°
2026-05-06 22:02 34.22842 -8.99590 37005 ft 432 kts 221°
2026-05-06 22:03 34.18131 -9.04096 36998 ft 432 kts 221°
2026-05-06 22:03 34.13448 -9.08569 37001 ft 432 kts 221°
2026-05-06 22:04 34.08732 -9.13066 37001 ft 432 kts 221°
2026-05-06 22:04 34.04002 -9.17570 37004 ft 432 kts 221°
2026-05-06 22:05 33.99275 -9.22064 37003 ft 432 kts 221°